Location: *
(38.3914°N, 75.0697°W)
Time: 09:19:41
(UTC+00:00)

H-2A R/B - Pass Details

Date: 17 February 2020
Orbit: 266 x 32795 km, 28.4° (Epoch: 03 April)

Event Time Altitude Azimuth Distance (km) Brightness Sun altitude
Rises 01:07:47 0° 252° (WSW) 16,086 9.6 -29.7°
Reaches altitude 10° 01:30:26 10° 249° (WSW) 9,006 8.0 -34.1°
Enters shadow 01:47:48 36° 202° (SSW) 2,085 4.1 -37.4°
